Fort Wayne Police Department
Fort Wayne Police Department
Emergencies Call: 911
Non-Emergencies: (260) 427-1222
report drug house

Daily Activity Logs

Activity Log for October 17, 2013 Community Search

Incident Time Nature Address
13F151295 00:05:30 22RC RECOVERY 200 LEITH ST W
13F151296 00:18:02 63 CONTACT 3500 BROADWAY & BLUFFTON RD
13F151297 00:24:11 50IP BURG I/P 900 DEWALD ST W
13F151298 00:26:20 48 SUSPICIOUS 600 LEWIS ST E & HANNA ST S
13F151299 00:41:10 43 DISTURBANCE 200 LEITH ST W
13F151300 00:44:52 22RC RECOVERY 500 FIFTH ST
13F151301 00:46:08 30 TRAFFIC STOP 3100 WINTER ST
13F151302 00:59:08 30 TRAFFIC STOP 4700 COLDWATER RD & COLLINS RD E
13F151303 01:03:32 30 TRAFFIC STOP 3900 STATE BLVD E & COLISEUM BLVD
13F151304 01:07:52 43 DISTURBANCE 6500 BLUFFTON RD
13F151305 01:33:47 39U UNAUTHORIZE 1700 OAKLAND ST
13F151306 01:52:08 30 TRAFFIC STOP 30300 I 69 NB
13F151307 01:57:39 911 HANG UP 400 PUTNAM ST
13F151308 02:09:37 129 600 LEWIS ST E & HANNA ST S
13F151309 02:23:08 16V PICKUP VID 00 MAIN ST E
13F151310 02:31:08 44 NUISANCE 5000 BUELL DR
13F151311 02:31:48 43,62 5300 COLDWATER RD
13F151312 02:35:57 46,96 5100 ROBERTA DR
13F151313 02:41:08 1 MEET 1900 GETZ RD
13F151314 02:42:06 33 DISABLED VEH 3100 I 469 NB
13F151315 02:43:25 911 HANG UP 2100 HOBSON RD
13F151316 02:49:43 40I INTRUSION 3200 CIERA CT
13F151317 02:50:13 43 DISTURBANCE 2800 NORTHGATE BLVD
13F151318 02:54:08 20 PROBLEM UNK 3200 ROBINWOOD DR
13F151319 02:55:55 44 NUISANCE 7300 BAER RD
13F151320 02:56:00 50,ATTEMPTED 4700 ANTHONY BLVD S
13F151321 03:08:01 42 INTOX PERSON 7100 BLUFFTON RD
13F151322 03:14:42 27 RECKLESS DRI 2400 JEFFERSON BLVD W
13F151323 03:23:28 48,36 1500 ST JOE CENTER RD & CLINTON ST
13F151324 03:32:43 43 DISTURBANCE 3200 ROBINWOOD DR
13F151325 03:54:26 30 TRAFFIC STOP 1000 ANTHONY BLVD S & MAUMEE AVE
13F151326 03:54:52 44 NUISANCE 2700 SCHAPER DR
13F151327 03:56:40 63 CONTACT 4400 BOWSER AVE
13F151328 04:04:56 48 SUSPICIOUS 1700 HILLSIDE AVE
13F151329 04:05:12 911 HANG UP 7200 WOODLYNN DR
13F151330 04:33:34 26 PI ACCIDENT 30700 I 69 SB
13F151331 04:38:32 40A AUDIBLE 6200 INNOVATION BLVD
13F151332 04:38:51 EMS 8200 LAKESIDE CT
13F151333 04:41:30 48 SUSPICIOUS 4100 HARRIS RD
13F151335 04:47:35 130 HOME DETEN 2700 CULBERTSON ST
13F151334 04:55:41 48 SUSPICIOUS 9800 COLDWATER RD
13F151336 05:05:38 911 HANG UP 200 MAIN ST W
13F151337 05:26:42 39U UNAUTHORIZE 1700 OAKLAND ST
13F151338 05:35:25 43 DISTURBANCE 7500 IDEAL AVE
13F151339 05:45:21 911 HANG UP 4600 HEATHERWIND DR
13F151340 06:00:48 43 DISTURBANCE 2200 RANDALLIA DR
13F151341 06:03:18 911 HANG UP 1700 OAKLAND ST
13F151342 06:11:42 129 1800 MAPLECREST RD & MONARCH DR
13F151344 06:12:03 40A AUDIBLE 2000 BROADWAY
13F151343 06:12:06 129 7800 REGINA DR & FOLSOM LN
13F151345 06:23:31 23,35 VAND VEH 3700 WARSAW ST
13F151349 06:34:53 24 MISSING PERS 3000 MCCORMICK AVE
13F151346 06:36:40 43,62 1700 TAYLOR ST & ELECTRIC AVE
13F151347 06:39:25 41 MAN DOWN 2900 JEFFERSON BLVD W & CATALPA ST
13F151348 06:40:51 40A AUDIBLE 2000 BROADWAY
13F151350 06:45:18 48 SUSPICIOUS 600 STURGIS ST
13F151351 06:50:37 46,96 4400 BOWSER AVE
13F151352 06:59:44 102 THREATS 2300 FOX AVE
13F151353 07:02:24 51,35 2400 JULIETTE AVE
13F151354 07:02:39 911 HANG UP 100 WASHINGTON CENTER RD W
13F151355 07:17:07 911 HANG UP 3000 REED RD
13F151356 07:17:16 28 DUI 3000 MCDONALD ST
13F151358 07:22:31 40A AUDIBLE 10400 ILLINOIS RD
13F151357 07:22:51 911 HANG UP 800 WAYNE ST W
13F151359 07:24:28 46 DOMESTIC 4600 ARLINGTON AVE
13F151360 07:25:40 25 PD ACCIDENT 800 VAN BUREN ST & WAYNE ST W
13F151361 07:27:37 40A AUDIBLE 100 BERRY ST W
13F151364 07:35:51 102 THREATS 600 STURGIS ST
13F151362 07:39:50 25 PD ACCIDENT 700 JEFFERSON BLVD W & VAN BUREN S
13F151363 07:44:35 30 TRAFFIC STOP 100 JEFFERSON BLVD E & CALHOUN ST
13F151374 07:54:14 22I JUV INVEST 4500 CALHOUN ST S
13F151365 07:54:59 23,35 VAND VEH 1300 BURGESS ST
13F151366 08:00:00 40A AUDIBLE 2900 WEISSER PARK AVE
13F151367 08:01:05 911 HANG UP 7300 TREVERTON CT
13F151368 08:03:35 1 MEET 5600 INDUSTRIAL RD
13F151369 08:04:26 34 TRAFF HAZARD 3600 WEBSTER ST
13F151370 08:04:43 48,35 3600 WEBSTER ST
13F151371 08:06:10 22RN RUNAWAY 3900 ABBOTT ST
13F151372 08:10:14 911 HANG UP 100 BAKER ST W
13F151373 08:10:35 103 UNWANTED 7300 DECATUR RD
13F151375 08:15:49 43 DISTURBANCE 3500 WARSAW ST
13F151376 08:20:27 33,34 30400 I 69 SB
13F151378 08:25:53 20 PROBLEM UNK 700 OAKLAWN CT
13F151383 08:27:04 33,34 1400 TILLMAN RD E
13F151380 08:28:46 33J LOCKED OUT 3500 OLIVER ST
13F151382 08:30:05 22I JUV INVEST 2700 WASHINGTON CENTER RD W
13F151379 08:30:12 18 WORK TRAFFIC 1000 WASHINGTON CENTER RD W
13F151381 08:30:15 911 HANG UP 4000 WASHINGTON BLVD E & COLISEUM
13F151386 08:33:47 39 STOLEN VEHIC 1600 KINSMOOR AVE
13F151384 08:37:44 51,35 3400 MONTAGNE DR
13F151385 08:40:30 911 HANG UP 10500 ILLINOIS RD
13F151387 08:45:15 51 THEFT 1200 COLISEUM BLVD N
13F151389 08:46:29 48 SUSPICIOUS 4100 HARRIS RD
13F151390 08:46:49 50 BURGLARY 600 HARRISON ST S
13F151388 08:47:23 25 PD ACCIDENT 5000 INVESTMENT DR
13F151391 08:57:32 40A AUDIBLE 4500 STANDISH DR
13F151392 08:57:46 40A AUDIBLE 300 DUPONT RD E
13F151393 08:58:12 51 THEFT 3300 IVY LEAGUE DR
13F151394 09:04:42 911 HANG UP 400 MAIN ST E
13F151395 09:09:53 26 PI ACCIDENT 6200 STELLHORN RD & MAPLECREST RD
13F151396 09:12:38 48 SUSPICIOUS 5400 WOODHURST BLVD
13F151397 09:14:25 129 6600 OAK FOREST TRL
13F151398 09:14:42 129 6200 BOHDE TRL
13F151399 09:22:32 1 MEET 2700 STATE BLVD E
13F151400 09:34:35 23 VANDALISM 11400 JEFFERSON BLVD W
13F151401 09:34:44 51,35 5100 INDUSTRIAL RD
13F151402 09:34:48 25 PD ACCIDENT 4700 OXFORD ST & MEYER RD
13F151404 09:35:41 70 FIRE 1000 WASHINGTON CENTER RD W
13F151403 09:36:21 39 STOLEN VEHIC 900 AVENUE OF AUTOS
13F151405 09:46:16 65T SUICIDE THR 1700 COREE DR
13F151406 09:51:13 51 THEFT 4600 GAYWOOD DR
13F151407 09:53:25 48 SUSPICIOUS 2700 BROOKLYN AVE
13F151408 10:00:18 30 TRAFFIC STOP 1700 CARROLL RD & LIMA RD
13F151409 10:01:17 25HS HIT SKIP 2000 SHERMAN BLVD & MARGARET AVE
13F151410 10:05:26 22RN RUNAWAY 3600 EASTROWE ST
13F151411 10:07:04 129 800 MILDRED AVE
13F151412 10:09:38 50 BURGLARY 5900 TURTLE CREEK DR
13F151415 10:13:17 99 NARCOTICS 2900 AMERICAN WAY
13F151416 10:13:34 102 THREATS 2500 BROOKLYN AVE
13F151414 10:14:30 40A AUDIBLE 4100 KENTLAND AVE
13F151413 10:14:36 40A AUDIBLE 2300 PITTSBURG ST
13F151418 10:16:41 911 HANG UP 1000 COLISEUM BLVD N
13F151419 10:28:13 26 PI ACCIDENT 7500 TIPPERARY TRL
13F151420 10:31:43 38 LOST/STOLEN 3000 EUCLID AVE
13F151421 10:34:42 26PP PINNED 8200 ROXBORO CT
13F151422 10:41:18 911 HANG UP 900 WASHINGTON CENTER RD E
13F151423 10:54:02 911 HANG UP 1500 HOBSON RD
13F151424 10:54:44 51 THEFT 900 GOSHEN AVE
13F151426 11:00:33 103 UNWANTED 2500 BROOKLYN AVE
13F151425 11:01:03 25 PD ACCIDENT 7000 COLDWATER RD
13F151427 11:01:09 43 DISTURBANCE 2500 BROOKLYN AVE
13F151429 11:02:52 40A AUDIBLE 2300 PITTSBURG ST
13F151428 11:02:57 65A SUICIDE ATT 4900 NORTHCREST DR
13F151430 11:10:37 30 TRAFFIC STOP 2100 FAIRFIELD AVE & DEWALD ST W
13F151431 11:14:40 33J LOCKED OUT 100 CREIGHTON AVE E
13F151432 11:22:24 23,35 VAND VEH 2900 SCHELE AVE
13F151433 11:28:26 40A AUDIBLE 3100 ALEXANDER ST
13F151434 11:34:16 33,34 2600 ARDMORE AVE & COVINGTON RD
13F151435 11:34:41 25 PD ACCIDENT 6600 ILLINOIS RD & I 69 NB
13F151436 11:37:00 33,34 3500 BROADWAY & BLUFFTON RD
13F151447 11:38:08 96 BATTERY 00 MAIN ST E
13F151437 11:38:26 911 HANG UP 700 EWING ST
13F151438 11:38:54 20 PROBLEM UNK 700 RUNNION AVE
13F151439 11:39:34 40P PANIC ALARM 5100 TRUEMPER WAY
13F151440 11:40:16 66 MENTALLY ILL 3700 MONROE ST S
13F151441 11:41:13 65A SUICIDE ATT 4300 WINSTON DR
13F151442 11:42:49 22RN RUNAWAY 500 BUCHANAN ST
13F151443 11:46:21 16,97 5100 COVENTRY PKWY
13F151444 11:59:32 911 HANG UP 6200 SALISBURY DR
13F151445 12:01:04 911 HANG UP 3400 KIRKFIELD DR
13F151448 12:03:09 34 TRAFF HAZARD 8900 JEFFERSON BLVD W & LIBERTY MI
13F151446 12:03:12 16,97 4100 HOLTON AVE
13F151449 12:06:39 129 2400 WEBSTER ST
13F151451 12:07:34 911 HANG UP 3700 RUPP DR
13F151450 12:07:55 25,86 1700 LAFAYETTE ST S
13F151452 12:10:16 25 PD ACCIDENT 300 WASHINGTON BLVD E & LAFAYETTE
13F151453 12:12:25 911 HANG UP 900 OAKDALE DR W
13F151454 12:13:05 51 THEFT 5300 CENTURY CT
13F151455 12:23:02 46,96 1900 CHARTWELL DR
13F151456 12:24:32 25 PD ACCIDENT 1100 BROADWAY & STURGIS ST
13F151459 12:24:47 33,34 300 COLISEUM BLVD W
13F151458 12:25:06 911 HANG UP 3200 CAPRICE CT
13F151457 12:25:22 65T SUICIDE THR 2400 JEFFERSON BLVD W
13F151460 12:34:36 70 FIRE 9100 WINCHESTER RD
13F151461 12:35:49 102 THREATS 500 WASHINGTON BLVD W
13F151462 12:39:33 30 TRAFFIC STOP 2700 JEFFERSON BLVD W
13F151463 12:57:25 40A AUDIBLE 2400 FAIRFIELD AVE
13F151464 13:10:40 66 MENTALLY ILL 2900 CANTERBURY BLVD
13F151465 13:15:33 103 UNWANTED 2000 BROADWAY
13F151466 13:17:32 911 HANG UP 6100 STELLHORN RD
13F151468 13:21:42 40A AUDIBLE 1100 COLISEUM BLVD N
13F151467 13:23:39 30 TRAFFIC STOP 1900 GOSHEN RD & BUTLER RD
13F151469 13:24:42 40ATM ATM ALARM 300 PETTIT AVE E
13F151471 13:27:24 48,35 1300 SOMERSET LN
13F151470 13:27:35 911 HANG UP 3000 COMMERCIAL RD
13F151472 13:29:13 46 DOMESTIC 1400 CASS ST
13F151473 13:32:49 25 PD ACCIDENT 1200 THOMAS RD S & ILLINOIS RD
13F151474 13:36:13 25 PD ACCIDENT 1200 THOMAS RD S & ILLINOIS RD
13F151476 13:36:14 48,36 6300 BLUFFTON RD
13F151475 13:37:23 25 PD ACCIDENT 2700 ABBOTT ST
13F151478 13:39:47 27 RECKLESS DRI 700 CLINTON ST S
13F151477 13:40:17 15 ASSIST 00 MAIN ST E
13F151504 13:42:45 39U UNAUTHORIZE 2500 JOHN ST
13F151479 13:42:56 EMS 8900 CLINTON ST N & WALLEN RD E
13F151481 13:50:45 14 WARRANT 7000 COLDWATER RD
13F151485 13:53:50 51 THEFT 600 GOSHEN AVE
13F151480 13:56:04 129 9700 FOREST CREEK DR
13F151483 13:57:52 40A AUDIBLE 3400 HOAGLAND AVE
13F151482 13:58:21 43 DISTURBANCE 100 TILLMAN RD E & CALHOUN ST S
13F151484 13:59:35 61 RAPE 1300 THIRD ST
13F151505 14:00:30 22RN RUNAWAY 1600 FAIRFAX AVE E
13F151487 14:03:45 39 STOLEN VEHIC 600 WINDRIFT LN
13F151486 14:04:27 129 1100 LUDWIG RD W
13F151488 14:06:16 30 TRAFFIC STOP 2500 BROADWAY & GRACE AVE
13F151489 14:08:38 30 TRAFFIC STOP 4000 LIMA RD & ICE WAY
13F151490 14:08:55 25 PD ACCIDENT 900 MCKINNIE AVE
13F151492 14:09:23 23 VANDALISM 4300 DEFOREST AVE
13F151491 14:12:28 34 TRAFF HAZARD 31000 I 69 NB
13F151494 14:14:33 17 MOTOR CHECK 1200 PACKARD AVE W
13F151493 14:16:10 30 TRAFFIC STOP 7300 JEFFERSON BLVD W
13F151498 14:16:47 96 BATTERY 6100 STELLHORN RD
13F151495 14:19:42 101 OPEN DOOR 2000 LEGOMA DR
13F151496 14:20:50 911 HANG UP 500 MADISON ST
13F151497 14:21:36 911 HANG UP 100 BERRY ST E
13F151500 14:23:41 48 SUSPICIOUS 1700 ALABAMA AVE
13F151501 14:24:09 25 PD ACCIDENT 4100 ILLINOIS RD
13F151499 14:24:27 129 900 CARIBE BLVD
13F151503 14:31:28 40A AUDIBLE 1700 ILLINOIS ST
13F151506 14:36:59 46,96 900 FULTON ST
13F151507 14:42:23 11C CAGE CAR 7500 SOUTHTOWN XING
13F151509 14:42:36 16,97 7100 CANTERWOOD PL
13F151508 14:43:37 129 7700 PREAKNESS CV
13F151510 14:45:43 34 TRAFF HAZARD 1400 ANTHONY BLVD N & LAKE AVE
13F151511 14:48:13 129 800 BUCHANAN ST
13F151512 14:48:31 129 3500 HANNA ST S
13F151513 14:49:57 911 HANG UP 8900 ILLINOIS RD
13F151580 14:51:41 25HS HIT SKIP 4600 MONROE ST S
13F151515 14:53:23 911 HANG UP 7000 BLUFFTON RD
13F151514 14:53:43 25 PD ACCIDENT 4700 ST JOE CENTER RD & REED RD
13F151516 14:59:09 25 PD ACCIDENT 500 ANDERSON AVE & SPY RUN AVE
13F151517 15:00:46 103 UNWANTED 900 WASHINGTON BLVD E
13F151520 15:08:31 48 SUSPICIOUS 5300 COLDWATER RD
13F151518 15:09:30 30 TRAFFIC STOP 1600 PRODUCTION RD & EXECUTIVE BLV
13F151523 15:09:36 17 MOTOR CHECK 6200 CHATEAU PL
13F151519 15:10:10 30 TRAFFIC STOP 800 SPRING ST & SHERMAN BLVD
13F151521 15:10:18 HARASSMENT 1200 SHERIDAN CT
13F151531 15:10:53 17 MOTOR CHECK 200 CROWN LN E
13F151524 15:12:32 43 DISTURBANCE 4800 MOELLER RD
13F151530 15:12:33 27 RECKLESS DRI 5500 DECATUR RD & HANNA ST S
13F151549 15:12:52 50 BURGLARY 1000 HAMILTON AVE
13F151522 15:13:22 30 TRAFFIC STOP 1200 GETZ RD & ILLINOIS RD
13F151537 15:15:46 22RN RUNAWAY 8100 ROXBORO CT
13F151525 15:17:46 30 TRAFFIC STOP 200 COLISEUM BLVD E
13F151555 15:18:42 22RN RUNAWAY 2700 WINCH ST
13F151526 15:19:27 40A AUDIBLE 1300 LATIMER CT
13F151527 15:22:26 25 PD ACCIDENT 5800 INLAND TRL & ST JOE CENTER RD
13F151529 15:23:13 25 PD ACCIDENT 1800 ST JOE CENTER RD & CONCORDIA
13F151528 15:24:12 51,35 2800 HARRISON ST S
13F151532 15:26:41 25 PD ACCIDENT 3700 ENGLE RD & ARDMORE AVE
13F151533 15:28:38 22I JUV INVEST 1900 STATE BLVD W
13F151534 15:30:18 62 PARTY ARMED 7100 RIVERTON DR
13F151535 15:33:55 46 DOMESTIC 800 COLERICK ST
13F151604 15:38:16 1 MEET 1000 CLINTON ST S
13F151536 15:40:51 63Z ZACH CHECK 3100 ALEXANDER ST
13F151538 15:42:22 22I JUV INVEST 2100 FAIRFIELD AVE & POPLAR ST
13F151539 15:45:32 911 HANG UP 2700 SHERMAN BLVD
13F151540 15:46:13 48 SUSPICIOUS 4000 HANNA ST S
13F151546 15:46:39 46 DOMESTIC 4500 BOWSER AVE
13F151541 15:48:45 11C CAGE CAR 4200 COLDWATER RD
13F151548 15:51:04 33,34 3500 US 30 W & I 69 309 SB ON RAMP
13F151542 15:52:57 30 TRAFFIC STOP 3300 CLINTON ST N
13F151543 15:55:26 66 72 HOUR 7900 JEFFERSON BLVD W
13F151544 15:55:55 30 TRAFFIC STOP 6400 LEESBURG RD & FLAUGH RD
13F151545 15:57:58 63Z ZACH CHECK 1700 HOWELL ST
13F151547 16:00:19 129 3300 SUDBURY PL
13F151585 16:02:52 43 DISTURBANCE 900 COLERICK ST
13F151550 16:03:28 41 MAN DOWN 2000 TAYLOR ST
13F151552 16:03:44 51 THEFT 1400 TILLMAN RD E
13F151554 16:04:52 22I JUV INVEST 2200 RANDALLIA DR
13F151551 16:05:32 63Z ZACH CHECK 1300 HIGH ST
13F151553 16:06:03 911 HANG UP 7600 MAYSVILLE RD
13F151557 16:10:16 22RN RUNAWAY 5200 WEBSTER ST
13F151556 16:10:22 51 THEFT 500 HIGH ST
13F151559 16:13:41 46,96 3500 HARVESTER AVE
13F151558 16:14:02 HARASSMENT 700 CALHOUN ST S
13F151560 16:15:35 33J LOCKED OUT 7500 SOUTHTOWN XING
13F151561 16:18:18 41 MAN DOWN 1900 BROADWAY
13F151562 16:19:26 46 DOMESTIC 4100 WARSAW ST
13F151587 16:20:40 17 MOTOR CHECK 1200 LARCH LN
13F151568 16:23:09 25 PD ACCIDENT 2700 PAULDING RD E & CHURCHILL DR
13F151569 16:24:12 911 HANG UP 1600 CREIGHTON AVE E
13F151563 16:24:49 63Z ZACH CHECK 2900 WESTBROOK DR
13F151564 16:27:13 51 THEFT 1700 MERIDIAN ST
13F151605 16:27:33 47 REMOVE ITEMS 1700 HOBSON RD
13F151571 16:27:52 46 DOMESTIC 4000 OLIVER ST
13F151565 16:28:23 30 TRAFFIC STOP 400 COLISEUM BLVD W & LIMA RD
13F151567 16:29:33 25 PD ACCIDENT 300 STATE BLVD W & WELLS ST
13F151566 16:30:00 51 THEFT 4900 HOLTON AVE
13F151570 16:34:57 51 THEFT 5500 LYNHURST DR
13F151572 16:36:37 25HS HIT SKIP 10500 BETHEL RD & BLUEFIELD PL
13F151574 16:36:54 25 PD ACCIDENT 3100 ST JOE CENTER RD & VILLAGE OF
13F151573 16:37:46 25 PD ACCIDENT 4100 PAUL SHAFFER DR & COLISEUM BL
13F151576 16:38:07 911 HANG UP 4700 BOWSER AVE
13F151575 16:38:28 33,34 1800 MAIN ST W & RUNNION AVE
13F151577 16:41:27 25 PD ACCIDENT 1200 GETZ RD & ILLINOIS RD
13F151603 16:41:52 50 BURGLARY 2700 EUCLID AVE
13F151582 16:45:04 16,97 2500 LYNN AVE
13F151578 16:45:13 129 1500 BUCKSKIN DR
13F151579 16:45:34 129 6900 BITTERSWEET DELLS CT
13F151581 16:48:44 30 TRAFFIC STOP 1000 STATE BLVD W & ST MARYS AVE
13F151583 16:52:31 33,34 4100 WELLS ST
13F151584 16:53:18 46 DOMESTIC 300 ESMOND ST
13F151586 16:55:48 46 DOMESTIC 1400 FRANKLIN AVE
13F151594 16:58:11 46 DOMESTIC 10300 MAYSVILLE RD
13F151588 16:59:21 46 DOMESTIC 1900 RIVER RUN TRL
13F151589 17:00:40 51,35 600 ARCHER AVE
13F151590 17:01:12 40H HOLDUP ALRM 1100 AIRPORT NORTH OFFICE PARK
13F151617 17:03:42 22RC RECOVERY 1600 FAIRFAX AVE E
13F151591 17:04:00 34 TRAFF HAZARD 600 WASHINGTON BLVD W & BROADWAY
13F151592 17:04:36 30 TRAFFIC STOP 7100 ILLINOIS RD & HADLEY RD S
13F151593 17:07:39 30 TRAFFIC STOP 2000 GETZ RD
13F151595 17:08:56 25 PD ACCIDENT 4200 LIMA RD
13F151606 17:08:56 1 MEET 1500 FOURTH ST W
13F151596 17:10:10 41,36 800 STATE BLVD W & SHERMAN BLVD
13F151597 17:10:16 25 PD ACCIDENT 100 FERNHILL AVE W & LIMA RD
13F151600 17:14:31 25 PD ACCIDENT 31600 I 69 NB
13F151598 17:15:05 50IP BURG I/P 2600 THOMPSON AVE
13F151599 17:15:43 103 UNWANTED 300 SUPERIOR ST W
13F151602 17:16:35 33,34 400 STATE BLVD E
13F151601 17:17:03 46 DOMESTIC 2100 CHERI CT
13F151616 17:17:50 47 REMOVE ITEMS 2900 TAYLOR ST
13F151610 17:21:37 46 DOMESTIC 5500 KELSO LN
13F151607 17:21:46 65T SUICIDE THR 100 BAKER ST W
13F151609 17:22:19 911 HANG UP 2000 MERIDIAN ST
13F151608 17:23:06 30 TRAFFIC STOP 2100 GETZ RD
13F151611 17:26:20 62 PARTY ARMED 4100 SMITH RD & ENGLE RD
13F151626 17:30:32 56 MOLESTING 500 STRATTON RD
13F151612 17:31:31 25 PD ACCIDENT 1000 COLISEUM BLVD E & PARNELL AVE
13F151613 17:32:26 33,34 7300 LAFAYETTE ST S & TILLMAN RD E
13F151615 17:33:16 911 HANG UP 1000 COLISEUM BLVD W
13F151614 17:35:02 911 HANG UP 3300 WAYNE TRACE
13F151618 17:39:24 911 HANG UP 2200 SHERMAN BLVD
13F151619 17:42:48 30 TRAFFIC STOP 1600 GETZ RD
13F151623 17:46:26 42 INTOX PERSON 900 LIBRARY PLAZA
13F151625 17:46:49 911 HANG UP 1900 HOBSON RD
13F151620 17:47:43 25 PD ACCIDENT 4300 COOK RD W
13F151621 17:48:23 911 HANG UP 7500 IDEAL AVE
13F151622 17:50:23 911 HANG UP 2200 WEISSER PARK AVE
13F151624 17:50:45 15 ASSIST 3400 BUTLER RD
13F151627 17:55:21 911 HANG UP 6700 ANTHONY BLVD S
13F151634 18:00:43 46,96 1100 COLISEUM BLVD E
13F151628 18:02:54 33J LOCKED OUT 7600 JEFFERSON BLVD W
13F151629 18:03:37 83 INFO REPORT 400 WATKINS ST
13F151630 18:06:09 48 SUSPICIOUS 2700 WASHINGTON CENTER RD W
13F151631 18:07:20 22I JUV INVEST 3200 MAPLECREST RD & VANCE AVE
13F151632 18:09:21 17 MOTOR CHECK 500 STATE BLVD E
13F151633 18:11:06 25 PD ACCIDENT 300 COLISEUM BLVD E
13F151635 18:13:39 911 HANG UP 3200 BASS RD
13F151636 18:19:25 43 DISTURBANCE 1700 HOBSON RD
13F151637 18:24:02 911 HANG UP 600 THIRD ST
13F151638 18:25:23 34 TRAFF HAZARD 600 STATE BLVD E & PARNELL AVE
13F151639 18:28:50 911 HANG UP 900 WOODVIEW BLVD
13F151641 18:34:30 63 CONTACT 300 OAKDALE DR W
13F151642 18:36:29 47 REMOVE ITEMS 600 TENNESSEE AVE
13F151640 18:39:34 83 INFO REPORT 2800 WILLOW OAKS DR
13F151643 18:43:48 63 CONTACT 1000 CALHOUN ST S
13F151645 18:46:19 46 DOMESTIC 5200 LILLIE ST
13F151644 18:47:18 51IP 10400 MAYSVILLE RD
13F151647 18:51:07 911 HANG UP 900 WOODVIEW BLVD
13F151646 18:54:07 14S SERVING WAR 1000 NUTTMAN AVE
13F151649 18:55:15 46 DOMESTIC 900 MAPLE GROVE AVE E & GAYWOOD DR
13F151648 18:55:27 33,34 1700 HOBSON RD
13F151650 19:04:39 101 OPEN DOOR 5100 INDUSTRIAL RD
13F151654 19:08:48 43 DISTURBANCE 400 ECKART ST
13F151651 19:08:49 108 FOLLOWUP 4000 WAYNE TRACE
13F151652 19:10:06 63Z ZACH CHECK 1000 LIBERTY ST
13F151653 19:11:11 30 TRAFFIC STOP 100 STATE BLVD E & TERRACE RD
13F151655 19:12:00 46 DOMESTIC 3600 FELICIAN ST
13F151656 19:19:27 34 TRAFF HAZARD 5500 US 30 W
13F151657 19:20:27 48 SUSPICIOUS 4100 HARRIS RD
13F151658 19:27:27 40A AUDIBLE 3700 LOWER HUNTINGTON RD
13F151659 19:27:50 1 MEET 1300 WASHINGTON CENTER RD W
13F151660 19:31:08 25 PD ACCIDENT 1200 BROADWAY & BRACKENRIDGE ST W
13F151661 19:33:04 1 MEET 6800 HANNA ST S
13F151664 19:42:25 63 CONTACT 5400 CALHOUN ST S & BELMONT DR W
13F151662 19:43:03 30 TRAFFIC STOP 300 COLISEUM BLVD E
13F151666 19:46:53 47 REMOVE ITEMS 3400 AMULET DR
13F151663 19:47:12 30 TRAFFIC STOP 800 COLISEUM BLVD E & CLINTON ST N
13F151665 19:47:28 46 DOMESTIC 300 OAKDALE DR W
13F151667 19:50:49 911 HANG UP 2100 CHARTWELL DR
13F151668 19:55:17 46 DOMESTIC 2500 WENDIGO LN
13F151671 19:57:41 46 DOMESTIC 1900 HOBSON RD
13F151669 19:59:27 30 TRAFFIC STOP 3300 CLINTON ST N & LIVINGSTON AVE
13F151670 20:02:24 30 TRAFFIC STOP 1700 STATE BLVD W & NORTHHIGHLANDS
13F151672 20:03:59 66 MENTALLY ILL 4000 THORNBURY PL
13F151673 20:06:26 44FW 4200 WALKERS RIDGE
13F151700 20:07:01 50,ATTEMPTED 6300 ALVAREZ DR
13F151674 20:11:30 30 TRAFFIC STOP 1400 CLINTON ST N & FOURTH ST E
13F151676 20:14:01 43 DISTURBANCE 500 JEFFERSON BLVD W
13F151675 20:14:28 30 TRAFFIC STOP 6200 TRIER RD & MAPLECREST RD
13F151677 20:14:38 48 SUSPICIOUS 4800 PALATINE DR
13F151678 20:15:14 30 TRAFFIC STOP 5100 RIVIERA DR & WAKEFIELD AVE
13F151681 20:17:46 24 MISSING PERS 1600 HOBSON RD
13F151679 20:18:37 48 SUSPICIOUS 1500 ASHLEY AVE
13F151680 20:20:54 40A AUDIBLE 4400 COLDWATER RD
13F151682 20:23:27 51 THEFT 500 HAWTHORNE ST E
13F151683 20:27:39 30 TRAFFIC STOP 2500 SPY RUN AVE & CLINTON ST N
13F151684 20:28:06 30 TRAFFIC STOP 400 JEFFERSON BLVD E & CLAY ST
13F151685 20:30:41 30 TRAFFIC STOP 1400 COLISEUM BLVD E & PAUL SHAFFE
13F151687 20:36:05 53 ARMED ROB 600 OXFORD ST
13F151686 20:36:42 16V PICKUP VID 00 MAIN ST E
13F151688 20:36:55 101 OPEN DOOR 1300 SHERWOOD TERR W
13F151690 20:37:31 48 SUSPICIOUS 3300 CASSELWOOD DR
13F151693 20:40:05 46,96 2700 WASHINGTON CENTER RD W
13F151689 20:40:34 129 1400 FIELDSTONE DR
13F151691 20:42:24 30 TRAFFIC STOP 2600 ST JOE CENTER RD & MARTIN LUT
13F151692 20:44:46 25HS HIT SKIP 2200 HARRISON ST S
13F151694 20:55:07 43 DISTURBANCE 8500 LAKESIDE DR
13F151696 20:57:50 911 HANG UP 1800 LIMA VALLEY DR
13F151695 20:58:29 30 TRAFFIC STOP 8600 BLUFFTON RD & AIRPORT EXPRESS
13F151718 20:59:14 50 BURGLARY 400 DEWALD ST E
13F151697 21:00:40 46,96 3700 WASHINGTON BLVD E
13F151698 21:00:51 22I JUV INVEST 800 RIDGEWOOD DR
13F151699 21:02:33 911 HANG UP 3400 ROBINWOOD DR
13F151701 21:07:42 101 OPEN DOOR 1400 WILDWOOD AVE W
13F151702 21:10:03 48,36 6000 STELLHORN RD
13F151721 21:12:09 66 72 HOUR 7900 DECATUR RD
13F151703 21:12:13 25HS HIT SKIP 1900 BROADWAY & TAYLOR ST
13F151704 21:14:04 48,35 700 COLISEUM BLVD E
13F151706 21:16:33 46 DOMESTIC 2000 SHADY BROOK DR
13F151705 21:20:06 43 DISTURBANCE 2000 SHERMAN BLVD
13F151707 21:22:12 46,96 1500 STATE BLVD W
13F151709 21:23:09 40A AUDIBLE 8600 TARA CT
13F151708 21:24:12 30 TRAFFIC STOP 8600 BLUFFTON RD & AIRPORT EXPRESS
13F151710 21:27:01 46,96 2900 HOAGLAND AVE
13F151711 21:31:24 108 FOLLOWUP 2300 GAY ST
13F151712 21:34:11 80 CIVIL INVEST 3200 WAYNE TRACE
13F151713 21:38:20 101 OPEN DOOR 5900 BUNT DR
13F151714 21:41:56 65T SUICIDE THR 2200 ST LOUIS AVE
13F151715 21:42:07 46 DOMESTIC 1400 NEVADA AVE
13F151716 21:43:13 911 HANG UP 2800 RAYMOND ST
13F151717 21:49:17 43 DISTURBANCE 200 DALMAN AVE
13F151719 21:58:15 103 UNWANTED 1100 HARRISON ST S
13F151720 22:00:35 73 WALK AWAY 2200 RANDALLIA DR
13F151722 22:07:37 22RN RUNAWAY 2600 REED RD
13F151723 22:13:48 27 RECKLESS DRI 5500 COVENTRY LN
13F151724 22:16:01 50JO 4000 LILLIE ST
13F151725 22:22:20 26PP PINNED 4100 ILLINOIS RD
13F151726 22:29:32 48 SUSPICIOUS 100 FOSTER PKWY E
13F151727 22:36:38 48,36 2700 COLISEUM BLVD W
13F151732 22:38:36 108 FOLLOWUP 5300 GOSHEN RD
13F151729 22:41:52 46,96 2700 PAULDING RD E
13F151728 22:43:38 30 TRAFFIC STOP 4200 MONROE ST S & MCKINNIE AVE
13F151731 22:48:48 22I JUV INVEST 1900 BROADWAY
13F151730 22:49:54 48,36 3000 COLISEUM BLVD W
13F151733 22:56:07 30 TRAFFIC STOP 2900 GOSHEN RD & COLISEUM BLVD W
13F151734 22:57:16 911 HANG UP 500 ESSEX LN W
13F151735 22:58:55 27 RECKLESS DRI 1200 STATE BLVD W & JESSIE AVE
13F151736 22:59:59 129 3000 OXFORD ST
13F151737 23:02:21 46 DOMESTIC 6400 CHADDSFORD DR
13F151738 23:03:56 25 PD ACCIDENT 400 BRACKENRIDGE ST W
13F151739 23:06:41 103 UNWANTED 1100 PUTNAM ST
13F151740 23:08:00 911 HANG UP 1500 FAYETTE DR
13F151741 23:16:34 46,96 2700 ST LOUIS AVE
13F151742 23:23:56 911 HANG UP 900 WASHINGTON BLVD E
13F151745 23:24:06 63 CONTACT 300 SUPERIOR ST W
13F151743 23:24:55 48 SUSPICIOUS 8300 MAPLE VALLEY DR
13F151744 23:31:54 48,35 700 OAKLAWN CT
13F151746 23:35:39 48 SUSPICIOUS 2000 LAVERNE AVE
13F151747 23:45:51 46 DOMESTIC 4100 OLIVER ST
13F151748 23:46:21 48 SUSPICIOUS 1600 CASS ST
13F151749 23:48:34 16V PICKUP VID 00 MAIN ST E
13F151751 23:54:16 51IP 6300 LIMA RD
13F151750 23:54:17 50IP BURG I/P 3100 OLIVER ST
13F151752 23:57:05 101 OPEN DOOR 1700 HARRISON ST N
Amber Alert

All-America City